Weather History for El Centro, CA

Change the Weather History Date:

Sunday, April 20, 2014

  Actual Average Record
Temperature  
Mean Temperature 76 °F -  
Max Temperature 93 °F 83 °F 100 °F (2009)
Min Temperature 60 °F 58 °F 52 °F (2007)
Cooling Degree Days 12    
Growing Degree Days 26 (Base 50)    
Moisture  
Dew Point 47 °F    
Average Humidity 36    
Maximum Humidity 67    
Minimum Humidity 15    
Precipitation  
Precipitation 0.00 in - - ()
Sea Level Pressure  
Sea Level Pressure 29.97 in    
Wind  
Wind Speed 5 mph (SSE)    
Max Wind Speed 9 mph    
Max Gust Speed -    
Visibility 10 miles    
Events      
Averages and records for this station are not official NWS values.
T = Trace of Precipitation, MM = Missing Value Source: NWS Daily Summary

Daily Weather History Graph

Daily Weather History Graph

Search for Another Location

Airport:

Trip Planner

Search our weather history database for the weather conditions in past years. The results will help you decide how hot, cold, wet, or windy it might be!

Date:

Astronomy

Apr. 20, 2014 Rise Set
Actual Time 6:07 AM PDT 7:16 PM PDT
Civil Twilight 5:41 AM PDT 7:42 PM PDT
Nautical Twilight 5:11 AM PDT 8:12 PM PDT
Astronomical Twilight 4:39 AM PDT 8:44 PM PDT
Moon No Moon Rise 10:38 AM PDT (4/20)
Length of Visible Light 14h 00m
Length of Day
13h 09m
Waning Gibbous, 67% of the Moon is Illuminated
Apr 20
Waning Gibbous
Apr 22
Last Quarter
Apr 28
New
May 6
First Quarter
May 14
Full

Hourly Weather History & Observations

Time (PDT) Temp. Dew Point Humidity Pressure Visibility Wind Dir Wind Speed Gust Speed Precip Events Conditions
12:56 AM 73.9 °F 46.9 °F 38% 29.96 in 10.0 mi SW 5.8 mph - N/A   Clear
1:56 AM 70.0 °F 46.0 °F 42% 29.96 in 10.0 mi West 5.8 mph - N/A   Clear
2:56 AM 68.0 °F 46.9 °F 47% 29.96 in 10.0 mi NW 4.6 mph - N/A   Clear
3:56 AM 66.0 °F 48.0 °F 52% 29.97 in 10.0 mi SSE 6.9 mph - N/A   Clear
4:56 AM 66.0 °F 48.0 °F 52% 29.97 in 10.0 mi SW 3.5 mph - N/A   Clear
5:56 AM 60.1 °F 48.9 °F 67% 29.98 in 10.0 mi ESE 6.9 mph - N/A   Unknown
6:56 AM 64.0 °F 51.1 °F 63% 30.00 in 9.0 mi SE 3.5 mph - N/A   Clear
7:56 AM 69.1 °F 51.1 °F 53% 30.02 in 10.0 mi Calm Calm - N/A   Clear
8:56 AM 75.0 °F 53.1 °F 46% 30.03 in 10.0 mi Calm Calm - N/A   Clear
9:56 AM 81.0 °F 50.0 °F 34% 30.04 in 10.0 mi Calm Calm - N/A   Clear
10:56 AM 84.0 °F 51.1 °F 32% 30.04 in 10.0 mi NE 4.6 mph - N/A   Clear
11:56 AM 87.1 °F 48.9 °F 27% 30.03 in 10.0 mi Calm Calm - N/A   Clear
12:56 PM 88.0 °F 45.0 °F 22% 30.00 in 10.0 mi SE 5.8 mph - N/A   Clear
1:56 PM 91.0 °F 45.0 °F 20% 29.98 in 10.0 mi SE 8.1 mph - N/A   Clear
2:56 PM 91.9 °F 42.1 °F 18% 29.96 in 10.0 mi SE 6.9 mph - N/A   Clear
3:56 PM 91.9 °F 41.0 °F 17% 29.93 in 10.0 mi Variable 4.6 mph - N/A   Clear
4:56 PM 93.0 °F 41.0 °F 16% 29.92 in 10.0 mi Variable 6.9 mph - N/A   Clear
5:56 PM 93.0 °F 37.9 °F 15% 29.92 in 10.0 mi SE 5.8 mph - N/A   Clear
6:56 PM 88.0 °F 46.9 °F 24% 29.92 in 10.0 mi East 8.1 mph - N/A   Clear
7:56 PM 81.0 °F 48.9 °F 33% 29.94 in 10.0 mi SE 9.2 mph - N/A   Clear
8:56 PM 78.1 °F 48.9 °F 36% 29.95 in 10.0 mi SSE 8.1 mph - N/A   Clear
9:56 PM 75.0 °F 48.0 °F 38% 29.96 in 10.0 mi SSE 6.9 mph - N/A   Clear
10:56 PM 72.0 °F 45.0 °F 38% 29.97 in 10.0 mi SSW 3.5 mph - N/A   Clear
11:56 PM 73.9 °F 45.0 °F 35% 29.97 in 10.0 mi Calm Calm - N/A   Clear